Time,TemperatureF,DewpointF,PressureIn,WindDirection,WindDirectionDegrees,WindSpeedMPH,WindSpeedGustMPH,Humidity,HourlyPrecipIn,Conditions,Clouds,dailyrainin,SoftwareType,DateUTC
2013-04-07 00:05:00,26.9,16.4,30.23,WSW,247,0.0,0.0,64,0.00,SCT,OVC,0.00,WeatherDisplay:10.37,2013-04-07 04:05:00,
2013-04-07 00:10:00,27.1,17.6,30.23,WSW,247,0.0,0.0,67,0.00,SCT,OVC,0.00,WeatherDisplay:10.37,2013-04-07 04:10:00,
2013-04-07 00:20:00,27.3,17.8,30.22,WSW,247,0.0,0.0,67,0.00,SCT,OVC,0.00,WeatherDisplay:10.37,2013-04-07 04:20:00,
2013-04-07 00:25:00,27.2,18.7,30.22,WSW,247,0.0,0.0,70,0.00,SCT,OVC,0.00,WeatherDisplay:10.37,2013-04-07 04:25:00,
2013-04-07 00:30:00,27.0,17.5,30.22,WSW,247,0.0,0.0,67,0.00,SCT,OVC,0.00,WeatherDisplay:10.37,2013-04-07 04:30:00,
2013-04-07 00:35:00,26.9,17.4,30.21,WSW,247,0.0,0.0,67,0.00,SCT,OVC,0.00,WeatherDisplay:10.37,2013-04-07 04:35:00,
2013-04-07 00:40:00,26.9,17.4,30.21,WSW,247,0.0,0.0,67,0.00,SCT,OVC,0.00,WeatherDisplay:10.37,2013-04-07 04:40:00,
2013-04-07 00:45:00,26.9,17.7,30.21,WSW,247,0.0,0.0,68,0.00,SCT,OVC,0.00,WeatherDisplay:10.37,2013-04-07 04:45:00,
2013-04-07 00:50:00,26.8,17.6,30.21,WSW,247,0.0,0.0,68,0.00,SCT,OVC,0.00,WeatherDisplay:10.37,2013-04-07 04:50:00,
2013-04-07 00:55:00,27.0,18.5,30.21,WSW,247,0.0,0.0,70,0.00,SCT,OVC,0.00,WeatherDisplay:10.37,2013-04-07 04:55:00,
2013-04-07 01:00:00,27.1,18.9,30.20,WSW,247,0.0,0.0,71,0.00,SCT,OVC,0.00,WeatherDisplay:10.37,2013-04-07 05:00:00,
2013-04-07 01:05:00,27.1,18.6,30.20,WSW,247,0.0,0.0,70,0.00,SCT,OVC,0.00,WeatherDisplay:10.37,2013-04-07 05:05:00,
2013-04-07 01:15:00,27.3,17.4,30.19,WSW,247,0.0,0.0,66,0.00,BKN,OVC,0.00,WeatherDisplay:10.37,2013-04-07 05:15:00,
2013-04-07 01:20:00,27.3,18.5,30.19,WSW,247,0.0,0.0,69,0.00,BKN,OVC,0.00,WeatherDisplay:10.37,2013-04-07 05:20:00,
2013-04-07 01:30:00,27.5,19.3,30.18,WSW,247,0.0,0.0,71,0.00,BKN,OVC,0.00,WeatherDisplay:10.37,2013-04-07 05:30:00,
2013-04-07 01:35:00,27.6,18.4,30.18,WSW,247,0.0,0.0,68,0.00,BKN,OVC,0.00,WeatherDisplay:10.37,2013-04-07 05:35:00,
2013-04-07 01:40:00,27.8,18.9,30.17,WSW,247,0.0,0.0,69,0.00,BKN,OVC,0.00,WeatherDisplay:10.37,2013-04-07 05:40:00,
2013-04-07 01:45:00,27.9,19.0,30.17,WSW,247,0.0,0.0,69,0.00,BKN,OVC,0.00,WeatherDisplay:10.37,2013-04-07 05:45:00,
2013-04-07 01:50:00,27.9,18.4,30.17,WSW,247,0.0,1.0,67,0.00,BKN,OVC,0.00,WeatherDisplay:10.37,2013-04-07 05:50:00,
2013-04-07 02:00:00,28.2,18.3,30.16,WSW,247,0.0,1.0,66,0.00,BKN,OVC,0.00,WeatherDisplay:10.37,2013-04-07 06:00:00,
2013-04-07 02:10:00,28.5,19.3,30.14,WSW,247,0.0,1.0,68,0.00,BKN,OVC,0.00,WeatherDisplay:10.37,2013-04-07 06:10:00,
2013-04-07 02:20:00,28.8,17.7,30.14,NE,38,0.0,2.0,63,0.00,OVC,OVC,0.00,WeatherDisplay:10.37,2013-04-07 06:20:00,
2013-04-07 02:25:00,28.8,18.1,30.14,North,1,0.0,1.0,64,0.00,OVC,OVC,0.00,WeatherDisplay:10.37,2013-04-07 06:25:00,
2013-04-07 02:30:00,28.9,17.5,30.13,North,354,0.0,1.0,62,0.00,OVC,OVC,0.00,WeatherDisplay:10.37,2013-04-07 06:30:00,
2013-04-07 02:35:00,28.9,17.5,30.13,NNE,27,1.0,3.0,62,0.00,OVC,OVC,0.00,WeatherDisplay:10.37,2013-04-07 06:35:00,
2013-04-07 02:40:00,29.0,18.4,30.13,East,92,0.0,2.0,64,0.00,OVC,OVC,0.00,WeatherDisplay:10.37,2013-04-07 06:40:00,
2013-04-07 02:45:00,29.0,18.7,30.13,East,99,0.0,2.0,65,0.00,OVC,OVC,0.00,WeatherDisplay:10.37,2013-04-07 06:45:00,
2013-04-07 02:50:00,29.1,18.1,30.13,East,94,0.0,3.0,63,0.00,OVC,OVC,0.00,WeatherDisplay:10.37,2013-04-07 06:50:00,
2013-04-07 02:55:00,29.2,17.8,30.12,East,97,1.0,3.0,62,0.00,OVC,OVC,0.00,WeatherDisplay:10.37,2013-04-07 06:55:00,
2013-04-07 03:04:00,29.3,17.9,30.12,East,91,0.0,3.0,62,0.00,OVC,OVC,0.00,WeatherDisplay:10.37,2013-04-07 07:04:00,
2013-04-07 03:10:00,29.3,17.9,30.11,East,87,0.0,3.0,62,0.00,OVC,OVC,0.00,WeatherDisplay:10.37,2013-04-07 07:10:00,
2013-04-07 03:14:00,29.4,17.2,30.11,East,93,0.0,6.0,60,0.00,OVC,OVC,0.00,WeatherDisplay:10.37,2013-04-07 07:14:00,
2013-04-07 03:20:00,29.5,16.9,30.11,East,83,1.0,3.0,59,0.00,OVC,OVC,0.00,WeatherDisplay:10.37,2013-04-07 07:20:00,
2013-04-07 03:25:00,29.4,18.0,30.10,ENE,75,0.0,3.0,62,0.00,OVC,OVC,0.00,WeatherDisplay:10.37,2013-04-07 07:25:00,
2013-04-07 03:30:00,29.5,17.3,30.10,East,86,1.0,6.0,60,0.00,OVC,OVC,0.00,WeatherDisplay:10.37,2013-04-07 07:30:00,
2013-04-07 03:34:00,29.5,17.3,30.10,East,92,1.0,3.0,60,0.00,OVC,OVC,0.00,WeatherDisplay:10.37,2013-04-07 07:34:00,
2013-04-07 03:40:00,29.6,17.0,30.09,East,88,0.0,5.0,59,0.00,OVC,OVC,0.00,WeatherDisplay:10.37,2013-04-07 07:40:00,
2013-04-07 03:45:00,29.6,17.8,30.09,ENE,71,1.0,2.0,61,0.00,OVC,OVC,0.00,WeatherDisplay:10.37,2013-04-07 07:45:00,
2013-04-07 03:50:00,29.6,17.0,30.08,ENE,75,1.0,6.0,59,0.00,OVC,OVC,0.00,WeatherDisplay:10.37,2013-04-07 07:50:00,
2013-04-07 03:55:00,29.7,17.9,30.08,ESE,112,1.0,6.0,61,0.00,OVC,OVC,0.00,WeatherDisplay:10.37,2013-04-07 07:55:00,
2013-04-07 04:00:00,29.7,17.5,30.08,ESE,123,0.0,5.0,60,0.00,OVC,OVC,0.00,WeatherDisplay:10.37,2013-04-07 08:00:00,
2013-04-07 04:04:00,29.7,17.5,30.08,ESE,113,0.0,5.0,60,0.00,OVC,OVC,0.00,WeatherDisplay:10.37,2013-04-07 08:04:00,
2013-04-07 04:10:00,29.6,18.2,30.09,SE,126,0.0,2.0,62,0.00,OVC,OVC,0.00,WeatherDisplay:10.37,2013-04-07 08:10:00,
2013-04-07 04:14:00,29.6,17.0,30.08,ESE,109,1.0,2.0,59,0.00,OVC,OVC,0.00,WeatherDisplay:10.37,2013-04-07 08:14:00,
2013-04-07 04:20:00,29.6,18.2,30.08,East,93,0.0,2.0,62,0.00,OVC,OVC,0.00,WeatherDisplay:10.37,2013-04-07 08:20:00,
2013-04-07 04:25:00,29.5,18.8,30.08,ESE,120,0.0,4.0,64,0.00,OVC,OVC,0.00,WeatherDisplay:10.37,2013-04-07 08:25:00,
2013-04-07 04:34:00,29.6,17.4,30.08,ENE,77,0.0,5.0,60,0.00,OVC,OVC,0.00,WeatherDisplay:10.37,2013-04-07 08:34:00,
2013-04-07 04:40:00,29.6,16.6,30.07,East,83,0.0,2.0,58,0.00,OVC,OVC,0.00,WeatherDisplay:10.37,2013-04-07 08:40:00,
2013-04-07 04:45:00,29.7,18.3,30.07,East,93,0.0,3.0,62,0.00,OVC,OVC,0.00,WeatherDisplay:10.37,2013-04-07 08:45:00,
2013-04-07 04:50:00,29.7,17.9,30.07,East,99,0.0,2.0,61,0.00,OVC,OVC,0.00,WeatherDisplay:10.37,2013-04-07 08:50:00,
2013-04-07 05:00:00,29.6,18.2,30.07,NE,52,0.0,2.0,62,0.00,OVC,OVC,0.00,WeatherDisplay:10.37,2013-04-07 09:00:00,
2013-04-07 05:04:00,29.6,17.4,30.07,ENE,67,1.0,3.0,60,0.00,OVC,OVC,0.00,WeatherDisplay:10.37,2013-04-07 09:04:00,
2013-04-07 05:10:00,29.5,18.4,30.07,ENE,71,0.0,2.0,63,0.00,OVC,OVC,0.00,WeatherDisplay:10.37,2013-04-07 09:10:00,
2013-04-07 05:19:00,29.2,18.9,30.07,North,11,0.0,3.0,65,0.00,OVC,OVC,0.00,WeatherDisplay:10.37,2013-04-07 09:19:00,
2013-04-07 05:24:00,29.1,19.5,30.07,NE,47,0.0,2.0,67,0.00,OVC,OVC,0.00,WeatherDisplay:10.37,2013-04-07 09:24:00,
2013-04-07 05:29:00,29.1,19.8,30.06,ENE,77,0.0,2.0,68,0.00,OVC,OVC,0.00,WeatherDisplay:10.37,2013-04-07 09:29:00,
2013-04-07 05:34:00,29.0,20.1,30.06,ENE,78,1.0,2.0,69,0.00,OVC,OVC,0.00,WeatherDisplay:10.37,2013-04-07 09:34:00,
2013-04-07 05:39:00,28.9,20.0,30.05,East,81,1.0,2.0,69,0.00,OVC,OVC,0.00,WeatherDisplay:10.37,2013-04-07 09:39:00,
2013-04-07 05:44:00,28.9,19.7,30.04,ENE,78,0.0,1.0,68,0.00,OVC,OVC,0.00,WeatherDisplay:10.37,2013-04-07 09:44:00,
2013-04-07 05:50:00,28.8,19.9,30.04,ENE,76,0.0,3.0,69,0.00,OVC,OVC,0.00,WeatherDisplay:10.37,2013-04-07 09:50:00,
2013-04-07 05:59:00,28.7,20.1,30.04,East,95,1.0,3.0,70,0.00,OVC,OVC,0.00,WeatherDisplay:10.37,2013-04-07 09:59:00,
2013-04-07 06:04:00,28.7,20.5,30.04,ESE,102,0.0,2.0,71,0.00,-SN,OVC,0.00,WeatherDisplay:10.37,2013-04-07 10:04:00,
2013-04-07 06:09:00,28.6,21.4,30.04,ESE,110,0.0,1.0,74,0.00,-SN,OVC,0.00,WeatherDisplay:10.37,2013-04-07 10:09:00,
2013-04-07 06:19:00,28.6,21.0,30.04,East,91,0.0,3.0,73,0.00,-SN,OVC,0.00,WeatherDisplay:10.37,2013-04-07 10:19:00,
2013-04-07 06:25:00,28.6,21.0,30.03,East,83,0.0,2.0,73,0.00,-SN,OVC,0.00,WeatherDisplay:10.37,2013-04-07 10:25:00,
2013-04-07 06:34:00,28.6,21.7,30.03,ENE,78,0.0,3.0,75,0.00,-SN,OVC,0.00,WeatherDisplay:10.37,2013-04-07 10:34:00,
2013-04-07 06:39:00,28.6,21.4,30.02,East,83,1.0,6.0,74,0.00,-SN,OVC,0.00,WeatherDisplay:10.37,2013-04-07 10:39:00,
2013-04-07 06:44:00,28.6,22.0,30.02,East,96,0.0,7.0,76,0.00,-SN,OVC,0.00,WeatherDisplay:10.37,2013-04-07 10:44:00,
2013-04-07 06:50:00,28.4,22.1,30.02,ESE,110,1.0,3.0,77,0.00,-SN,OVC,0.00,WeatherDisplay:10.37,2013-04-07 10:50:00,
2013-04-07 06:55:00,28.4,23.0,30.03,NNE,12,1.0,4.0,80,0.00,-PL,OVC,0.00,WeatherDisplay:10.37,2013-04-07 10:55:00,
2013-04-07 06:59:00,28.4,23.3,30.03,NNE,29,1.0,2.0,81,0.00,-PL,OVC,0.00,WeatherDisplay:10.37,2013-04-07 10:59:00,
2013-04-07 07:04:00,28.3,23.8,30.02,East,81,1.0,3.0,83,0.00,-PL,OVC,0.00,WeatherDisplay:10.37,2013-04-07 11:04:00,
2013-04-07 07:10:00,28.2,23.7,30.00,East,80,1.0,3.0,83,0.00,-PL,OVC,0.00,WeatherDisplay:10.37,2013-04-07 11:10:00,
2013-04-07 07:20:00,28.1,24.2,29.98,East,82,2.0,6.0,85,0.00,-PL,OVC,0.00,WeatherDisplay:10.37,2013-04-07 11:20:00,
2013-04-07 07:24:00,28.1,24.2,29.98,East,79,1.0,9.0,85,0.00,-PL,OVC,0.00,WeatherDisplay:10.37,2013-04-07 11:24:00,
2013-04-07 07:29:00,28.0,24.1,29.98,ENE,76,2.0,7.0,85,0.00,-PL,OVC,0.00,WeatherDisplay:10.37,2013-04-07 11:29:00,
2013-04-07 07:34:00,28.0,24.4,29.98,East,87,1.0,4.0,86,0.00,-PL,OVC,0.00,WeatherDisplay:10.37,2013-04-07 11:34:00,
2013-04-07 07:39:00,28.1,24.4,29.98,East,96,1.0,3.0,86,0.00,-PL,OVC,0.00,WeatherDisplay:10.37,2013-04-07 11:39:00,
2013-04-07 07:45:00,28.2,24.6,29.97,East,99,1.0,3.0,86,0.00,-PL,OVC,0.00,WeatherDisplay:10.37,2013-04-07 11:45:00,
2013-04-07 07:54:00,28.4,25.0,29.97,ENE,73,0.0,3.0,87,0.00,-PL,OVC,0.00,WeatherDisplay:10.37,2013-04-07 11:54:00,
2013-04-07 08:00:00,28.6,25.2,29.97,NE,49,1.0,2.0,87,0.00,-PL,OVC,0.00,WeatherDisplay:10.37,2013-04-07 12:00:00,
2013-04-07 08:05:00,28.7,25.3,29.96,ENE,59,1.0,3.0,87,0.00,-PL,OVC,0.00,WeatherDisplay:10.37,2013-04-07 12:05:00,
2013-04-07 08:15:00,29.0,25.6,29.95,ENE,73,0.0,5.0,87,0.00,OVC,OVC,0.00,WeatherDisplay:10.37,2013-04-07 12:15:00,
2013-04-07 08:20:00,29.2,25.8,29.96,NE,53,0.0,3.0,87,0.00,OVC,OVC,0.00,WeatherDisplay:10.37,2013-04-07 12:20:00,
2013-04-07 08:25:00,29.4,26.0,29.95,ENE,65,1.0,3.0,87,0.00,OVC,OVC,0.00,WeatherDisplay:10.37,2013-04-07 12:25:00,
2013-04-07 08:34:00,29.8,26.4,29.96,NNE,18,0.0,4.0,87,0.00,OVC,OVC,0.00,WeatherDisplay:10.37,2013-04-07 12:34:00,
2013-04-07 08:39:00,30.0,26.6,29.95,North,4,1.0,4.0,87,0.00,OVC,OVC,0.00,WeatherDisplay:10.37,2013-04-07 12:39:00,
2013-04-07 08:44:00,30.3,26.9,29.95,ENE,72,0.0,2.0,87,0.00,OVC,OVC,0.00,WeatherDisplay:10.37,2013-04-07 12:44:00,
2013-04-07 08:49:00,30.4,26.8,29.94,ESE,102,0.0,4.0,86,0.00,OVC,OVC,0.00,WeatherDisplay:10.37,2013-04-07 12:49:00,
2013-04-07 08:54:00,30.7,27.0,29.93,ENE,67,1.0,2.0,86,0.00,OVC,OVC,0.00,WeatherDisplay:10.37,2013-04-07 12:54:00,
2013-04-07 08:59:00,31.1,27.1,29.93,East,84,1.0,3.0,85,0.00,OVC,OVC,0.00,WeatherDisplay:10.37,2013-04-07 12:59:00,
2013-04-07 09:05:00,31.7,27.7,29.92,ENE,73,1.0,3.0,85,0.00,OVC,OVC,0.00,WeatherDisplay:10.37,2013-04-07 13:05:00,
2013-04-07 09:15:00,32.0,27.1,29.91,ENE,69,2.0,4.0,82,0.00,OVC,OVC,0.00,WeatherDisplay:10.37,2013-04-07 13:15:00,
2013-04-07 09:24:00,32.2,27.3,29.91,East,98,1.0,4.0,82,0.00,OVC,OVC,0.00,WeatherDisplay:10.37,2013-04-07 13:24:00,
2013-04-07 09:29:00,32.7,27.8,29.91,NE,49,2.0,5.0,82,0.00,OVC,OVC,0.00,WeatherDisplay:10.37,2013-04-07 13:29:00,
2013-04-07 09:34:00,33.2,28.0,29.91,NE,44,1.0,2.0,81,0.00,OVC,OVC,0.00,WeatherDisplay:10.37,2013-04-07 13:34:00,
2013-04-07 09:40:00,33.7,27.8,29.90,East,91,1.0,5.0,79,0.00,OVC,OVC,0.00,WeatherDisplay:10.37,2013-04-07 13:40:00,
2013-04-07 09:49:00,34.0,28.2,29.89,East,80,1.0,3.0,79,0.00,OVC,OVC,0.00,WeatherDisplay:10.37,2013-04-07 13:49:00,
2013-04-07 09:55:00,34.0,27.5,29.89,East,85,2.0,7.0,77,0.00,OVC,OVC,0.00,WeatherDisplay:10.37,2013-04-07 13:55:00,
2013-04-07 10:04:00,34.7,27.9,29.88,East,82,2.0,7.0,76,0.00,OVC,OVC,0.00,WeatherDisplay:10.37,2013-04-07 14:04:00,
2013-04-07 10:10:00,34.9,27.8,29.87,ENE,78,1.0,6.0,75,0.00,OVC,OVC,0.00,WeatherDisplay:10.37,2013-04-07 14:10:00,
2013-04-07 10:19:00,35.0,27.9,29.86,ENE,70,1.0,5.0,75,0.00,OVC,OVC,0.00,WeatherDisplay:10.37,2013-04-07 14:19:00,
2013-04-07 10:25:00,34.9,27.8,29.86,ENE,74,2.0,9.0,75,0.00,OVC,OVC,0.00,WeatherDisplay:10.37,2013-04-07 14:25:00,
2013-04-07 10:34:00,35.4,27.9,29.85,East,100,0.0,8.0,74,0.00,OVC,OVC,0.00,WeatherDisplay:10.37,2013-04-07 14:34:00,
2013-04-07 10:39:00,35.5,27.7,29.84,East,94,2.0,5.0,73,0.00,OVC,OVC,0.00,WeatherDisplay:10.37,2013-04-07 14:39:00,
2013-04-07 10:45:00,35.9,28.1,29.84,ENE,76,0.0,6.0,73,0.00,OVC,OVC,0.00,WeatherDisplay:10.37,2013-04-07 14:45:00,
2013-04-07 10:55:00,36.8,28.2,29.84,East,92,2.0,7.0,71,0.01,RA,OVC,0.01,WeatherDisplay:10.37,2013-04-07 14:55:00,
2013-04-07 11:04:00,37.8,28.2,29.83,East,96,3.0,9.0,68,0.00,OVC,OVC,0.01,WeatherDisplay:10.37,2013-04-07 15:04:00,
2013-04-07 11:09:00,37.6,28.0,29.83,East,89,1.0,5.0,68,0.00,OVC,OVC,0.01,WeatherDisplay:10.37,2013-04-07 15:09:00,
2013-04-07 11:14:00,37.5,28.3,29.82,East,99,3.0,7.0,69,0.00,OVC,OVC,0.01,WeatherDisplay:10.37,2013-04-07 15:14:00,
2013-04-07 11:19:00,37.6,28.4,29.82,East,92,0.0,5.0,69,0.01,RA,OVC,0.02,WeatherDisplay:10.37,2013-04-07 15:19:00,
2013-04-07 11:24:00,37.8,28.6,29.81,East,89,1.0,3.0,69,0.00,RA,OVC,0.02,WeatherDisplay:10.37,2013-04-07 15:24:00,
2013-04-07 11:29:00,37.9,28.3,29.81,ENE,74,2.0,8.0,68,0.00,OVC,OVC,0.02,WeatherDisplay:10.37,2013-04-07 15:29:00,
2013-04-07 11:35:00,38.4,28.8,29.81,East,88,3.0,7.0,68,0.00,OVC,OVC,0.02,WeatherDisplay:10.37,2013-04-07 15:35:00,
2013-04-07 11:44:00,39.5,29.0,29.81,East,87,1.0,6.0,66,0.00,OVC,OVC,0.02,WeatherDisplay:10.37,2013-04-07 15:44:00,
2013-04-07 11:50:00,40.3,29.5,29.80,East,89,1.0,5.0,65,0.00,OVC,OVC,0.02,WeatherDisplay:10.37,2013-04-07 15:50:00,
2013-04-07 12:00:00,40.1,29.3,29.80,East,80,2.0,6.0,65,0.00,OVC,OVC,0.02,WeatherDisplay:10.37,2013-04-07 16:00:00,
2013-04-07 12:09:00,40.9,30.4,29.78,East,89,0.0,3.0,66,0.00,OVC,OVC,0.02,WeatherDisplay:10.37,2013-04-07 16:09:00,
2013-04-07 12:14:00,41.1,29.9,29.78,ENE,70,0.0,3.0,64,0.00,OVC,OVC,0.02,WeatherDisplay:10.37,2013-04-07 16:14:00,
2013-04-07 12:20:00,40.7,29.5,29.78,ENE,72,1.0,4.0,64,0.00,OVC,OVC,0.02,WeatherDisplay:10.37,2013-04-07 16:20:00,
2013-04-07 12:29:00,41.1,29.8,29.77,ENE,70,0.0,5.0,64,0.00,OVC,OVC,0.02,WeatherDisplay:10.37,2013-04-07 16:29:00,
2013-04-07 12:34:00,41.4,30.1,29.77,NE,50,1.0,2.0,64,0.00,OVC,OVC,0.02,WeatherDisplay:10.37,2013-04-07 16:34:00,
2013-04-07 12:39:00,41.9,30.2,29.76,NE,46,2.0,6.0,63,0.00,OVC,OVC,0.02,WeatherDisplay:10.37,2013-04-07 16:39:00,
2013-04-07 12:44:00,42.2,30.5,29.76,NE,54,1.0,3.0,63,0.00,OVC,OVC,0.02,WeatherDisplay:10.37,2013-04-07 16:44:00,
2013-04-07 12:49:00,42.5,29.5,29.76,ENE,60,2.0,5.0,60,0.00,OVC,OVC,0.02,WeatherDisplay:10.37,2013-04-07 16:49:00,
2013-04-07 12:55:00,42.2,29.7,29.76,East,89,0.0,4.0,61,0.00,OVC,OVC,0.02,WeatherDisplay:10.37,2013-04-07 16:55:00,
2013-04-07 13:04:00,42.2,29.7,29.75,ESE,118,0.0,5.0,61,0.00,OVC,OVC,0.02,WeatherDisplay:10.37,2013-04-07 17:04:00,
2013-04-07 13:09:00,43.1,30.6,29.75,East,100,1.0,6.0,61,0.00,OVC,OVC,0.02,WeatherDisplay:10.37,2013-04-07 17:09:00,
2013-04-07 13:15:00,43.3,29.5,29.75,East,83,2.0,5.0,58,0.00,OVC,OVC,0.02,WeatherDisplay:10.37,2013-04-07 17:15:00,
2013-04-07 13:24:00,43.2,30.2,29.75,ENE,72,1.0,2.0,60,0.00,OVC,OVC,0.02,WeatherDisplay:10.37,2013-04-07 17:24:00,
2013-04-07 13:30:00,43.3,29.9,29.74,East,94,0.0,3.0,59,0.00,OVC,OVC,0.02,WeatherDisplay:10.37,2013-04-07 17:30:00,
2013-04-07 13:40:00,43.2,30.2,29.74,North,3,2.0,4.0,60,0.00,OVC,OVC,0.02,WeatherDisplay:10.37,2013-04-07 17:40:00,
2013-04-07 13:49:00,42.9,30.4,29.74,North,350,1.0,3.0,61,0.00,OVC,OVC,0.02,WeatherDisplay:10.37,2013-04-07 17:49:00,
2013-04-07 13:55:00,42.6,32.0,29.74,North,350,0.0,3.0,66,0.00,OVC,OVC,0.02,WeatherDisplay:10.37,2013-04-07 17:55:00,
2013-04-07 14:05:00,40.4,34.7,29.73,ESE,120,1.0,3.0,80,0.00,RA,OVC,0.02,WeatherDisplay:10.37,2013-04-07 18:05:00,
2013-04-07 14:15:00,38.8,35.8,29.72,ESE,104,0.0,0.0,89,0.00,-RA,OVC,0.03,WeatherDisplay:10.37,2013-04-07 18:15:00,
2013-04-07 14:20:00,38.9,36.2,29.72,ESE,104,0.0,1.0,90,0.00,-RA,OVC,0.03,WeatherDisplay:10.37,2013-04-07 18:20:00,
2013-04-07 14:29:00,38.4,36.0,29.71,East,98,1.0,2.0,91,0.00,-RA,OVC,0.03,WeatherDisplay:10.37,2013-04-07 18:29:00,
2013-04-07 14:35:00,38.2,35.8,29.72,NW,320,1.0,2.0,91,0.00,-RA,OVC,0.03,WeatherDisplay:10.37,2013-04-07 18:35:00,
2013-04-07 14:45:00,38.3,36.2,29.72,NW,312,0.0,0.0,92,0.01,-RA,OVC,0.04,WeatherDisplay:10.37,2013-04-07 18:45:00,
2013-04-07 14:54:00,38.3,36.5,29.71,NW,312,0.0,1.0,93,0.00,-RA,OVC,0.04,WeatherDisplay:10.37,2013-04-07 18:54:00,
2013-04-07 14:59:00,38.3,36.5,29.70,NW,312,0.0,0.0,93,0.00,-RA,OVC,0.04,WeatherDisplay:10.37,2013-04-07 18:59:00,
2013-04-07 15:04:00,38.5,36.9,29.69,NW,312,0.0,0.0,94,0.00,-RA,OVC,0.04,WeatherDisplay:10.37,2013-04-07 19:04:00,
2013-04-07 15:09:00,39.0,37.4,29.69,NW,312,0.0,0.0,94,0.00,-RA,OVC,0.04,WeatherDisplay:10.37,2013-04-07 19:09:00,
2013-04-07 15:19:00,39.1,37.5,29.69,NW,312,0.0,1.0,94,0.00,-RA,OVC,0.04,WeatherDisplay:10.37,2013-04-07 19:19:00,
2013-04-07 15:25:00,39.2,37.6,29.69,NW,312,0.0,1.0,94,0.00,-RA,OVC,0.04,WeatherDisplay:10.37,2013-04-07 19:25:00,
2013-04-07 15:30:00,39.1,37.2,29.69,NW,308,0.0,3.0,93,0.00,-RA,OVC,0.04,WeatherDisplay:10.37,2013-04-07 19:30:00,
2013-04-07 15:40:00,39.2,37.3,29.69,West,267,0.0,3.0,93,0.00,-RA,OVC,0.04,WeatherDisplay:10.37,2013-04-07 19:40:00,
2013-04-07 15:45:00,39.2,37.3,29.69,NNW,342,0.0,1.0,93,0.00,-RA,OVC,0.04,WeatherDisplay:10.37,2013-04-07 19:45:00,
2013-04-07 15:54:00,39.5,37.9,29.69,North,349,0.0,0.0,94,0.00,-RA,OVC,0.04,WeatherDisplay:10.37,2013-04-07 19:54:00,
2013-04-07 15:59:00,39.6,38.0,29.68,North,349,0.0,0.0,94,0.00,-RA,OVC,0.04,WeatherDisplay:10.37,2013-04-07 19:59:00,
2013-04-07 16:05:00,39.8,38.2,29.68,North,349,0.0,0.0,94,0.00,-RA,OVC,0.04,WeatherDisplay:10.37,2013-04-07 20:05:00,
2013-04-07 16:14:00,39.7,37.8,29.68,North,349,0.0,0.0,93,0.00,-RA,OVC,0.04,WeatherDisplay:10.37,2013-04-07 20:14:00,
2013-04-07 16:19:00,39.7,38.1,29.67,North,349,0.0,0.0,94,0.00,-RA,OVC,0.04,WeatherDisplay:10.37,2013-04-07 20:19:00,
2013-04-07 16:25:00,40.1,38.2,29.67,North,349,1.0,2.0,93,0.00,-RA,OVC,0.04,WeatherDisplay:10.37,2013-04-07 20:25:00,
2013-04-07 16:34:00,40.0,38.1,29.67,North,349,0.0,1.0,93,0.00,-RA,OVC,0.04,WeatherDisplay:10.37,2013-04-07 20:34:00,
2013-04-07 16:40:00,40.0,38.1,29.67,North,349,0.0,0.0,93,0.00,-RA,OVC,0.04,WeatherDisplay:10.37,2013-04-07 20:40:00,
2013-04-07 16:45:00,40.4,38.5,29.66,North,349,0.0,0.0,93,0.00,-RA,OVC,0.04,WeatherDisplay:10.37,2013-04-07 20:45:00,
2013-04-07 16:54:00,40.5,38.6,29.66,North,349,0.0,0.0,93,0.00,-RA,OVC,0.04,WeatherDisplay:10.37,2013-04-07 20:54:00,
2013-04-07 16:59:00,40.4,38.5,29.66,North,349,0.0,0.0,93,0.00,-RA,OVC,0.04,WeatherDisplay:10.37,2013-04-07 20:59:00,
2013-04-07 17:04:00,40.5,38.6,29.65,North,349,0.0,0.0,93,0.00,-RA,OVC,0.04,WeatherDisplay:10.37,2013-04-07 21:04:00,
2013-04-07 17:10:00,40.4,38.5,29.65,North,349,0.0,0.0,93,0.00,-RA,OVC,0.04,WeatherDisplay:10.37,2013-04-07 21:10:00,
2013-04-07 17:19:00,41.0,39.2,29.64,North,349,0.0,0.0,93,0.00,-RA,OVC,0.04,WeatherDisplay:10.37,2013-04-07 21:19:00,
2013-04-07 17:25:00,40.6,38.8,29.64,North,349,0.0,1.0,93,0.00,-RA,OVC,0.04,WeatherDisplay:10.37,2013-04-07 21:25:00,
2013-04-07 17:34:00,39.9,38.0,29.64,North,349,0.0,2.0,93,0.00,-RA,OVC,0.04,WeatherDisplay:10.37,2013-04-07 21:34:00,
2013-04-07 17:45:00,39.5,37.9,29.64,North,349,0.0,2.0,94,0.00,-RA,OVC,0.04,WeatherDisplay:10.37,2013-04-07 21:45:00,
2013-04-07 17:50:00,39.2,37.6,29.64,North,349,0.0,0.0,94,0.00,-RA,OVC,0.04,WeatherDisplay:10.37,2013-04-07 21:50:00,
2013-04-07 17:59:00,38.8,37.2,29.65,NNW,334,1.0,3.0,94,0.00,-RA,OVC,0.04,WeatherDisplay:10.37,2013-04-07 21:59:00,
2013-04-07 18:04:00,39.2,37.6,29.65,NNW,335,2.0,4.0,94,0.00,-RA,OVC,0.04,WeatherDisplay:10.37,2013-04-07 22:04:00,
2013-04-07 18:09:00,39.6,38.3,29.66,NNW,342,1.0,5.0,95,0.00,-RA,OVC,0.04,WeatherDisplay:10.37,2013-04-07 22:09:00,
2013-04-07 18:20:00,40.5,39.2,29.67,NNW,333,2.0,5.0,95,0.00,-RA,OVC,0.05,WeatherDisplay:10.37,2013-04-07 22:20:00,
2013-04-07 18:30:00,40.8,39.5,29.67,North,355,1.0,4.0,95,0.01,-RA,OVC,0.06,WeatherDisplay:10.37,2013-04-07 22:30:00,
2013-04-07 18:39:00,40.8,39.2,29.68,NW,316,2.0,4.0,94,0.00,-RA,OVC,0.06,WeatherDisplay:10.37,2013-04-07 22:39:00,
2013-04-07 18:44:00,40.4,38.8,29.68,NW,316,2.0,4.0,94,0.01,-RA,OVC,0.07,WeatherDisplay:10.37,2013-04-07 22:44:00,
2013-04-07 18:50:00,40.3,38.7,29.68,NW,324,2.0,4.0,94,0.00,-RA,OVC,0.07,WeatherDisplay:10.37,2013-04-07 22:50:00,
2013-04-07 18:59:00,40.9,39.5,29.69,NW,308,1.0,5.0,95,0.01,-RA,OVC,0.08,WeatherDisplay:10.37,2013-04-07 22:59:00,
2013-04-07 19:09:00,42.0,40.7,29.69,NW,317,0.0,6.0,95,0.00,-RA,OVC,0.09,WeatherDisplay:10.37,2013-04-07 23:09:00,
2013-04-07 19:14:00,42.2,40.9,29.69,NW,308,1.0,2.0,95,0.00,-RA,OVC,0.09,WeatherDisplay:10.37,2013-04-07 23:14:00,
2013-04-07 19:19:00,42.0,40.7,29.69,NNW,335,1.0,3.0,95,0.02,-RA,OVC,0.10,WeatherDisplay:10.37,2013-04-07 23:19:00,
2013-04-07 19:24:00,41.8,40.5,29.70,NNW,348,0.0,2.0,95,0.01,-RA,OVC,0.11,WeatherDisplay:10.37,2013-04-07 23:24:00,
2013-04-07 19:29:00,42.2,40.9,29.69,NW,325,0.0,1.0,95,0.00,-RA,OVC,0.11,WeatherDisplay:10.37,2013-04-07 23:29:00,
2013-04-07 19:34:00,42.4,41.1,29.70,NW,323,0.0,2.0,95,0.00,-RA,OVC,0.11,WeatherDisplay:10.37,2013-04-07 23:34:00,
2013-04-07 19:39:00,41.7,40.4,29.69,NW,323,0.0,2.0,95,0.00,-RA,OVC,0.11,WeatherDisplay:10.37,2013-04-07 23:39:00,
2013-04-07 19:44:00,41.4,40.1,29.70,NW,311,2.0,3.0,95,0.01,-RA,OVC,0.12,WeatherDisplay:10.37,2013-04-07 23:44:00,
2013-04-07 19:49:00,41.8,40.4,29.70,NW,304,2.0,4.0,95,0.00,-RA,OVC,0.12,WeatherDisplay:10.37,2013-04-07 23:49:00,
2013-04-07 19:54:00,41.7,40.4,29.70,WNW,296,1.0,7.0,95,0.00,-RA,OVC,0.12,WeatherDisplay:10.37,2013-04-07 23:54:00,
2013-04-07 20:04:00,42.1,40.8,29.70,WNW,293,1.0,4.0,95,0.00,-RA,OVC,0.12,WeatherDisplay:10.37,2013-04-08 00:04:00,
2013-04-07 20:14:00,42.9,41.8,29.71,WNW,296,8.0,14.0,96,0.00,-RA,OVC,0.12,WeatherDisplay:10.37,2013-04-08 00:14:00,
2013-04-07 20:19:00,43.1,41.8,29.71,WNW,282,5.0,9.0,95,0.00,-RA,OVC,0.12,WeatherDisplay:10.37,2013-04-08 00:19:00,
2013-04-07 20:29:00,43.3,41.4,29.71,West,270,3.0,10.0,93,0.00,-RA,OVC,0.12,WeatherDisplay:10.37,2013-04-08 00:29:00,
2013-04-07 20:34:00,43.3,41.1,29.72,West,276,3.0,10.0,92,0.00,-RA,OVC,0.12,WeatherDisplay:10.37,2013-04-08 00:34:00,
2013-04-07 20:44:00,43.2,40.8,29.73,West,280,3.0,8.0,91,0.00,-RA,OVC,0.12,WeatherDisplay:10.37,2013-04-08 00:44:00,
2013-04-07 20:49:00,42.9,40.5,29.73,WNW,282,1.0,5.0,91,0.00,-RA,OVC,0.12,WeatherDisplay:10.37,2013-04-08 00:49:00,
2013-04-07 20:54:00,42.6,40.2,29.74,WNW,287,3.0,12.0,91,0.00,-RA,OVC,0.12,WeatherDisplay:10.37,2013-04-08 00:54:00,
2013-04-07 20:59:00,42.6,40.2,29.74,WNW,295,5.0,8.0,91,0.00,-RA,OVC,0.12,WeatherDisplay:10.37,2013-04-08 00:59:00,
2013-04-07 21:05:00,42.7,40.0,29.74,WNW,291,5.0,12.0,90,0.00,-RA,OVC,0.12,WeatherDisplay:10.37,2013-04-08 01:05:00,
2013-04-07 21:14:00,42.5,39.8,29.75,WNW,296,5.0,14.0,90,0.00,BKN,OVC,0.12,WeatherDisplay:10.37,2013-04-08 01:14:00,
2013-04-07 21:24:00,42.5,39.5,29.76,WNW,289,6.0,10.0,89,0.00,BKN,OVC,0.12,WeatherDisplay:10.37,2013-04-08 01:24:00,
2013-04-07 21:29:00,42.4,39.3,29.77,WNW,285,2.0,12.0,89,0.00,BKN,OVC,0.12,WeatherDisplay:10.37,2013-04-08 01:29:00,
2013-04-07 21:34:00,42.1,39.4,29.77,West,279,7.0,12.0,90,0.00,BKN,OVC,0.12,WeatherDisplay:10.37,2013-04-08 01:34:00,
2013-04-07 21:50:00,41.7,38.7,29.78,West,262,5.0,12.0,89,0.00,BKN,OVC,0.12,WeatherDisplay:10.37,2013-04-08 01:50:00,
2013-04-07 21:59:00,41.4,38.1,29.79,West,274,5.0,9.0,88,0.00,BKN,OVC,0.12,WeatherDisplay:10.37,2013-04-08 01:59:00,
2013-04-07 22:04:00,41.4,37.8,29.79,West,271,2.0,12.0,87,0.00,BKN,OVC,0.12,WeatherDisplay:10.37,2013-04-08 02:04:00,
2013-04-07 22:09:00,41.3,37.7,29.79,West,267,3.0,9.0,87,0.00,BKN,OVC,0.12,WeatherDisplay:10.37,2013-04-08 02:09:00,
2013-04-07 22:14:00,41.1,37.5,29.79,West,274,2.0,14.0,87,0.00,BKN,OVC,0.12,WeatherDisplay:10.37,2013-04-08 02:14:00,
2013-04-07 22:19:00,40.9,37.6,29.80,West,269,2.0,9.0,88,0.00,BKN,OVC,0.12,WeatherDisplay:10.37,2013-04-08 02:19:00,
2013-04-07 22:24:00,40.9,37.3,29.80,West,276,3.0,12.0,87,0.00,BKN,OVC,0.12,WeatherDisplay:10.37,2013-04-08 02:24:00,
2013-04-07 22:29:00,40.9,37.3,29.80,West,266,3.0,9.0,87,0.00,BKN,OVC,0.12,WeatherDisplay:10.37,2013-04-08 02:29:00,
2013-04-07 22:39:00,40.6,37.3,29.80,WSW,252,3.0,12.0,88,0.00,BKN,OVC,0.12,WeatherDisplay:10.37,2013-04-08 02:39:00,
2013-04-07 22:54:00,40.4,36.8,29.81,West,277,3.0,9.0,87,0.00,BKN,OVC,0.12,WeatherDisplay:10.37,2013-04-08 02:54:00,
2013-04-07 23:04:00,40.4,36.5,29.81,West,279,3.0,12.0,86,0.00,BKN,OVC,0.12,WeatherDisplay:10.37,2013-04-08 03:04:00,
2013-04-07 23:09:00,40.3,36.4,29.81,West,278,7.0,13.0,86,0.00,BKN,OVC,0.12,WeatherDisplay:10.37,2013-04-08 03:09:00,
2013-04-07 23:20:00,40.2,36.1,29.82,WNW,287,5.0,16.0,85,0.00,OVC,OVC,0.12,WeatherDisplay:10.37,2013-04-08 03:20:00,
2013-04-07 23:29:00,40.3,36.1,29.82,West,277,6.0,13.0,85,0.00,OVC,OVC,0.12,WeatherDisplay:10.37,2013-04-08 03:29:00,
2013-04-07 23:34:00,40.3,36.1,29.83,WNW,295,3.0,8.0,85,0.00,OVC,OVC,0.12,WeatherDisplay:10.37,2013-04-08 03:34:00,
2013-04-07 23:39:00,40.1,36.0,29.83,WNW,290,2.0,7.0,85,0.00,OVC,OVC,0.12,WeatherDisplay:10.37,2013-04-08 03:39:00,
2013-04-07 23:49:00,40.1,36.0,29.83,WNW,283,5.0,9.0,85,0.00,OVC,OVC,0.12,WeatherDisplay:10.37,2013-04-08 03:49:00,
2013-04-07 23:54:00,39.9,35.8,29.83,West,280,3.0,9.0,85,0.00,OVC,OVC,0.12,WeatherDisplay:10.37,2013-04-08 03:54:00,